This demonstration page uses our WeatherBlox Daily Observations layout. Learn more.

Left ArrowRight Arrow

40.92945, -100.16068

Hourly Observations for July 25, 2021

Temp ( °F °C ) Dew Point ( °F °C ) Humidity (%) Winds ( mph kmh ) Pressure ( in mb ) Visibility ( mi km ) Precip ( " mm )
12:15 am 00:15 Cloudy 75 24 67 19.5 76 76 ESE 13 20 29.96 1014 10 16 N/A
12:35 am 00:35 Cloudy with Rain 75 23.9 67 19.7 77 77 E 16 26 29.95 1014 5 8 0.06 1.52
12:55 am 00:55 Cloudy with Light Rain 74 23.1 70 21 88 88 E 9 15 29.97 1015 7 11 0.17 4.32
1:15 am 01:15 Partly Cloudy 73 22.9 70 21.3 91 91 ESE 5 7 29.97 1015 10 16 N/A
1:35 am 01:35 Clear 73 22.9 69 20.7 87 87 ESE 5 7 29.96 1014 10 16 N/A
1:55 am 01:55 Clear 73 22.5 69 20.7 90 90 N N/A 29.96 1015 10 16 N/A
2:15 am 02:15 Clear 71 21.5 69 20.5 94 94 N N/A 29.97 1015 7 11 N/A
2:35 am 02:35 Clear 71 21.9 70 21 95 95 SE 3 6 29.98 1015 7 11 N/A
2:55 am 02:55 Clear with Nearby Thunderstorms 71 21.6 69 20.6 94 94 SSE 3 6 29.98 1015 7 11 N/A
3:15 am 03:15 Partly Cloudy 71 21.6 69 20.7 95 95 SSE 5 7 29.97 1015 7 11 N/A
3:35 am 03:35 Partly Cloudy with Nearby Thunderstorms 71 21.5 69 20.7 95 95 SSE 5 7 29.97 1015 7 11 N/A
3:55 am 03:55 Clear with Mist and Fog 70 21.3 69 20.4 95 95 S 7 11 29.97 1015 5 8 N/A
4:15 am 04:15 Clear with Nearby Thunderstorms 71 21.5 69 20.4 93 93 SSE 7 11 29.96 1015 7 11 N/A
4:35 am 04:35 Clear with Thunderstorms 71 21.6 69 20.5 93 93 SSE 8 13 29.96 1014 7 11 N/A
4:55 am 04:55 Clear with Thunderstorms 72 22.3 71 21.4 95 95 S 7 11 29.94 1014 5 8 N/A
5:15 am 05:15 Clear with Mist and Fog 73 22.5 71 21.5 94 94 SE 6 9 29.95 1014 5 8 N/A
5:35 am 05:35 Clear with Nearby Thunderstorms 73 22.6 70 21.3 92 92 SSE 8 13 29.96 1015 7 11 N/A
5:55 am 05:55 Clear 71 21.7 65 18.4 82 82 SSE 5 7 29.97 1015 10 16 N/A
6:15 am 06:15 Clear with Thunderstorms 71 21.7 63 17.3 76 76 S 6 9 29.96 1014 10 16 N/A
6:35 am 06:35 Partly Cloudy 69 20.7 64 17.7 83 83 S 7 11 29.97 1015 10 16 N/A
6:55 am 06:55 Sunny with Nearby Thunderstorms 70 21 63 17.1 79 79 S 6 9 29.96 1015 7 11 N/A
7:15 am 07:15 Sunny with Thunderstorms 69 20.8 63 17.2 80 80 ESE 3 6 29.97 1015 7 11 N/A
7:35 am 07:35 Sunny with Nearby Thunderstorms 69 20.3 64 18 87 87 ESE 7 11 29.97 1015 7 11 N/A
7:55 am 07:55 Sunny 69 20.6 65 18.3 87 87 E 7 11 29.97 1015 10 16 N/A
8:15 am 08:15 Sunny with Nearby Thunderstorms 70 21 66 18.7 87 87 ESE 8 13 29.97 1015 10 16 N/A
8:35 am 08:35 Sunny with Nearby Thunderstorms 70 21.3 66 19.1 87 87 SE 5 7 29.98 1015 7 11 N/A
8:55 am 08:55 Sunny 71 21.5 67 19.6 89 89 E 7 11 29.99 1016 7 11 N/A
9:15 am 09:15 Partly Cloudy 71 21.7 68 20.2 91 91 ESE 8 13 30.00 1016 7 11 N/A
9:35 am 09:35 Partly Cloudy with Mist and Fog 72 22.2 70 21 93 93 E 8 13 29.99 1016 5 8 N/A
9:55 am 09:55 Sunny with Nearby Thunderstorms 73 22.7 70 21.1 91 91 ESE 9 15 29.99 1016 7 11 N/A
10:15 am 10:15 Partly Cloudy 73 22.9 70 21 89 89 ESE 10 17 29.99 1015 10 16 N/A
10:35 am 10:35 Partly Cloudy 73 22.8 69 20.7 88 88 SSE 8 13 30.00 1016 10 16 N/A
10:55 am 10:55 Partly Cloudy 73 22.5 66 19.1 81 81 S 3 6 30.00 1016 10 16 N/A
11:15 am 11:15 Sunny 73 23 66 19 78 78 SSE 8 13 30.01 1016 10 16 N/A
11:35 am 11:35 Sunny 73 22.7 65 18.6 78 78 SSE 9 15 30.01 1016 10 16 N/A
11:55 am 11:55 Sunny 74 23.3 66 18.7 75 75 SSE 8 13 30.01 1016 10 16 N/A
12:15 pm 12:15 Sunny 74 23.6 65 18.3 72 72 SE 12 19 30.02 1017 10 16 N/A
12:35 pm 12:35 Sunny 75 23.8 65 18.1 71 71 SSE 13 20 30.01 1016 10 16 N/A
12:55 pm 12:55 Sunny 75 24.1 66 18.9 73 73 SE 14 22 30.01 1016 10 16 N/A
1:15 pm 13:15 Mostly Cloudy 75 23.8 65 18.2 71 71 SSE 16 26 30.00 1016 10 16 N/A
1:35 pm 13:35 Partly Cloudy 76 24.5 64 17.8 66 66 SSE 13 20 30.00 1016 10 16 N/A
1:55 pm 13:55 Sunny 77 24.9 63 17.3 63 63 S 14 22 29.99 1016 10 16 N/A
2:15 pm 14:15 Sunny 77 25 63 17.2 62 62 S 13 20 29.99 1016 10 16 N/A
2:35 pm 14:35 Sunny 76 24.7 63 17.4 64 64 SSW 14 22 29.98 1015 10 16 N/A
2:55 pm 14:55 Sunny 77 24.9 63 17.1 62 62 S 10 17 29.98 1015 10 16 N/A
3:15 pm 15:15 Sunny 77 25 62 16.6 60 60 S 8 13 29.97 1015 10 16 N/A
3:35 pm 15:35 Sunny 78 25.3 63 17.3 61 61 SSW 10 17 29.96 1014 10 16 N/A
3:55 pm 15:55 Sunny 78 25.8 64 17.6 61 61 S 6 9 29.93 1014 10 16 N/A
4:15 pm 16:15 Sunny 79 26.2 63 17.3 58 58 SSW 9 15 29.93 1014 10 16 N/A
4:35 pm 16:35 Sunny 79 26 63 17.4 59 59 SW 8 13 29.92 1013 10 16 N/A
4:55 pm 16:55 Sunny 79 26.3 63 17.4 58 58 SW 3 6 29.91 1013 10 16 N/A
5:15 pm 17:15 Sunny 79 26.2 64 17.5 59 59 SSW 3 6 29.91 1013 10 16 N/A
5:35 pm 17:35 Sunny 79 26.2 64 17.5 59 59 SW 5 7 29.92 1013 10 16 N/A
5:55 pm 17:55 Sunny 80 26.6 64 17.5 57 57 WSW 3 6 29.92 1013 10 16 N/A
6:15 pm 18:15 Sunny 80 26.8 64 17.7 57 57 SW 6 9 29.91 1013 10 16 N/A
6:35 pm 18:35 Sunny 80 26.9 65 18.3 59 59 SSW 5 7 29.90 1013 10 16 N/A
6:55 pm 18:55 Sunny 80 26.7 65 18.4 60 60 SSW 5 7 29.90 1012 10 16 N/A
7:15 pm 19:15 Sunny 80 26.6 66 18.8 62 62 S 5 7 29.89 1012 10 16 N/A
7:35 pm 19:35 Sunny 79 26 66 19 65 65 SSW 6 9 29.89 1012 10 16 N/A
7:55 pm 19:55 Sunny 78 25.5 67 19.3 69 69 S 6 9 29.90 1012 10 16 N/A
8:15 pm 20:15 Sunny 76 24.7 66 19 71 71 SSE 3 6 29.90 1013 10 16 N/A
8:35 pm 20:35 Sunny 74 23.6 66 19 75 75 SSE 3 6 29.91 1013 10 16 N/A
8:55 pm 20:55 Sunny 73 22.7 65 18.6 78 78 SE 5 7 29.92 1013 10 16 N/A
9:15 pm 21:15 Clear 71 21.8 66 18.8 83 83 SSE 6 9 29.94 1014 10 16 N/A
9:35 pm 21:35 Clear 71 21.5 66 18.7 84 84 SE 3 6 29.96 1015 10 16 N/A
9:55 pm 21:55 Clear 71 21.7 65 18.5 82 82 SE 5 7 29.96 1014 10 16 N/A
10:15 pm 22:15 Clear 71 21.5 65 18.6 84 84 SE 5 7 29.96 1015 10 16 N/A
10:35 pm 22:35 Clear 69 20.5 65 18.5 88 88 SSE 5 7 29.98 1015 10 16 N/A
10:55 pm 22:55 Clear 68 20 65 18.2 89 89 SSE 6 9 29.99 1016 10 16 N/A
11:15 pm 23:15 Clear 67 19.7 65 18.1 91 91 SSE 6 9 29.99 1016 10 16 N/A
11:35 pm 23:35 Clear 68 20.1 65 18.4 90 90 SSE 6 9 30.00 1016 10 16 N/A
11:55 pm 23:55 Clear 67 19.4 65 18.1 92 92 SSE 5 7 30.01 1016 7 11 N/A

Powered by AerisWeather